Погода в Бырдалыке

Погода в Бырдалыке : погода сейчас, прогноз погоды и архив. Всё, что Вы хотите узнать о погоде в Бырдалыке!

Хотите узнать прогноз погоды в Бырдалыке? Тогда Вам сюда: Погода в Бырдалыке

Поиск расширенной информации на нашем сайте:

Другие новости

Новости СМИ2

Главная страница сайта

Новости сайта

03.07.2017

Напоминаем, что на нашем специализированном сайте Метеоцентр.Азия вы можете получить высокодетализированные автоматические прогнозы погоды по пунктам России, СНГ и мира в авиационном формате (включающие направление и скорость ветра, видимость, явления погоды, количество и форму облачности, нижнюю и верхнюю границу облачности).


Погода в Бырдалыке - сегодня

Время (UTC), дата Ветер
(°,м/с) 
Видим.   Явления Облачность Т
(°С)
Тd
(°С)
f(%) Тe
(°С)
Pmin
(гПа)
dP
(гПа)
Po
(мм)
O2
(г/м3)
Тmin Tmax R s Состояние
почвы
18 16.09.17 290 (З) 10 км    ясно 
+15.2 +8.5 64 +16  1015.2  743  282    +30.7       
21 16.09.17 180 (Ю) 10 км    ясно 
+13.2 +8.4 73 +14  1014.9  -0.5  742  284           
00 17.09.17 180 (Ю) 10 км    ясно 
+10.8 +6.5 75 +11  1015.1  742  287           
03 17.09.17 230 (ЮЗ) 10 км    ясно 
+13.8 +4.3 53 +14  1015.6  0.8  743  284           
06 17.09.17 230 (ЮЗ) 10 км    ясно 
+24.8 +4.1 26 +25  1015.9  1.1  744  274  +10.4         
09 17.09.17 270 (З) 10 км    ясно 
+32 +3.4 16 +32  1014.4  -0.9  743  267           
12 17.09.17 250 (З) 10 км    ясно 
+31.8 +3 16 +32  1013.4  -0.9  742  267           
15 17.09.17 250 (З) 10 км    ясно 
+22 +10 46 +23  1014.5  0.3  742  275    +32.2       
18 17.09.17 180 (Ю) 10 км    ясно 
+18 +11.4 65 +22  1014.9  0.1  743  279    +32.2       
21 17.09.17 160 (Ю) 10 км    ясно 
+14.6 +10 74 +16  1015  -0.2  742  282           
00 18.09.17 160 (Ю) 10 км    ясно 
+13.5 +7.6 67 +15  1015.2  0.1  742  284           
03 18.09.17 140 (ЮВ) 10 км    ясно 
+14.8 +6.8 59 +15  1016.7  1.4  743  283           
06 18.09.17 160 (Ю) 10 км    ясно 
+25.3 +6.8 31 +25  1016.2  0.4  744  273  +13.2         
09 18.09.17 230 (ЮЗ) 10 км    ясно 
+31.4 +3.6 17 +31  1015.2  -0.5  743  268           
12 18.09.17 270 (З) 10 км    ясно 
+32.9 +6.1 19 +33  1013.8  -1.1  743  266           
15 18.09.17 320 (СЗ) 10 км    ясно 
+23.2 +10.7 45 +25  1015.2  0.5  743  274    +33.3       
18 18.09.17 тихо ()   10 км    ясно 
+20.4 +9.5 50 +21  1015.6  0.2  743  277    +33.3       
21 18.09.17 320 (СЗ) 10 км    ясно 
+15.2 +7.3 59 +16  1015.3  -0.7  743  282           
00 19.09.17 320 (СЗ) 10 км    ?/?  
+13 +5.6 61 +14  1015.2  -0.3  742  285           
03 19.09.17 340 (С) 10 км    ясно 
+14.2 +5.8 57 +15  1016.1  0.9  743  284           
06 19.09.17 360 (С) 10 км    ясно 
+28.4 +3.6 20 +28  1015.2  0.2  743  271  +12.7         
09 19.09.17 360 (С) 10 км    ясно 
+32.8 +4.1 16 +33  1013.3  -1.3  742  266           
12 19.09.17 360 (С) 10 км    ясно 
+33.1 +2.5 14 +33  1012  -1.3  741  266           
15 19.09.17 340 (С) 10 км    ясно 
+29 +3.8 20 +29  1013.1  0.7  742  270    +33.4       
18 19.09.17 340 (С) 10 км    ясно 
+21.7 +5 34 +22  1013.4  -0.2  742  276    +33.4       
Время (UTC), дата Ветер
(°,м/с) 
Видим.   Явления Облачность Т
(°С)
Тd
(°С)
f(%) Тe
(°С)
Pmin
(гПа)
dP
(гПа)
Po
(мм)
O2
(г/м3)
Тmin Tmax R s Состояние
почвы

Для получения пояснительной информации подведите курсор к названию столбца.

ПОГОДА в Бырдалыке - архив

Всё, что Вы хотите узнать о погоде в Бырдалыке - удобно и подробно!

Выберите нужную дату (начиная с 1 января 2015* года) и нажмите кнопку "Найти".
Будут отображены архивные сводки погоды по пункту Бырдалык, начиная с указанной даты.


Отображать данные в формате CSV (для использования в таблицах Excel)


Внимание! Наш архив погоды предназначен исключительно для личного некоммерческого использования в познавательных целях. Если Вам необходимы официальные справки о состоянии погоды (для производственных, юридических, коммерческих и т.п. целей), обращайтесь в органы Росгидромета.

*Примечание: данная дата относится к архиву по метеостанциям СССР (Россия, СНГ, Балтия).
Архив по метеостанциям Зарубежной Европы и Азии (кроме Китая) хранится 10 дней, по другим регионам земного шара (Китай, Африка, Америка, Австралия, Океания) - 1 день.

Бырдалык - район местоположения метеостанции


Название, широта, долгота, высота метеостанции:
Бырдалык 38.5°ш. 64.4°д. 212 м над ур. моря [Туркменистан]

Дополнительная информация

В oтличие oт бoльшинства пoгoдных сайтoв мы публикуем пoдрoбную метеoинфoрмацию в детальнoм прoфессиoнальнoм фoрмате.

Характеристики температуры и влажнoсти вoздуха измеряются на высoте 2 м в тени вдали oт зданий и деревьев.
Скoрoсть ветра измеряется на высoте 10 м (на урoвне рoста челoвека скoрoсть ветра ниже в 1.5-2 раза). Если метеoстанция нахoдится в гoрoде или в лесу, тo скoрoсть ветра занижена на 2-4 м/с пo сравнению с oткрытым местoм. Скoрoсть ветра над акватoриями крупных рек и oзёр, а также на вершинах хoлмoв на 2-5 м/с выше, чем в oбычных услoвиях.
Атмoсфернoе давление в разных тoчках местнoсти мoжет значительнo oтличаться oт давления на метеoстанции, в зависимoсти oт услoвий рельефа (при пoдъёме на 10 м давление пoнижается примернo на 1 мм рт.ст.).